Theta_e
327 326 325 321 307 305 300 301 307 306 307 309 309 309 308 309 305 303 323 329 331 335 341 345 349 351 352 352 351 350 350 349 349 350 348 347 345 344 341 342 341 341 340 338 336 333 333 330 327
324 322 321 313 302 298 299 304 304 307 309 310 310 309 308 307 313 316 321 329 331 334 341 343 346 350 351 351 350 350 349 349 349 348 347 346 343 340 338 339 338 339 338 336 332 329 326 324 324
323 319 312 307 302 298 298 303 306 307 309 308 308 311 311 309 315 318 326 330 331 334 341 343 345 349 350 350 350 350 350 350 349 348 346 343 340 338 337 336 336 338 335 331 328 326 324 323 322
319 316 311 302 299 302 302 305 307 307 309 309 309 307 313 316 315 319 325 331 331 333 339 342 345 348 350 350 349 350 350 349 349 349 344 341 340 338 335 335 333 333 330 327 326 325 323 322 321
318 312 303 300 300 302 305 307 307 306 307 308 309 307 309 314 317 318 324 329 330 332 337 343 344 347 349 349 350 350 349 348 348 344 341 339 339 336 332 332 331 329 327 325 325 324 322 321 319
310 309 301 299 300 303 306 308 308 307 308 308 307 308 310 315 314 317 322 328 331 332 335 339 339 342 346 348 348 348 347 345 342 341 340 338 337 334 331 329 329 327 325 325 324 322 320 318 316
308 305 301 300 300 302 305 308 306 307 307 307 310 306 311 313 315 317 322 327 330 332 334 337 342 342 336 340 342 343 342 339 339 340 339 337 335 332 330 328 327 325 325 324 322 320 318 316 313
311 307 301 302 299 300 306 307 308 307 306 310 311 305 308 314 314 318 322 325 329 331 333 335 338 340 342 342 333 334 336 336 337 336 335 332 330 330 328 326 327 325 324 322 321 319 316 313 310
313 303 300 301 301 301 307 304 308 310 307 309 310 310 312 313 315 317 319 322 325 328 332 334 335 337 338 340 336 330 331 332 332 332 328 325 329 326 324 323 326 325 322 321 319 317 314 310 306
307 302 301 305 305 303 304 305 305 305 305 306 308 312 313 312 313 314 316 317 321 324 328 331 333 334 337 335 338 337 336 334 332 332 328 329 329 325 322 319 322 323 321 318 316 314 309 306 304
307 301 305 305 306 305 304 303 306 304 302 306 306 309 311 312 312 312 314 316 318 322 325 327 330 333 335 336 335 335 336 334 332 331 330 330 326 324 322 321 320 319 314 313 311 306 302 304 305
302 305 305 306 306 304 303 305 304 305 305 309 310 310 310 310 310 311 312 314 315 318 322 325 327 329 332 333 333 332 331 332 332 330 332 328 324 321 319 319 320 319 315 314 310 305 306 303 302
303 304 305 306 306 305 305 303 303 304 308 310 310 309 309 309 310 312 313 314 315 315 319 323 325 326 329 330 331 330 330 330 331 331 331 327 322 319 318 318 318 317 314 311 306 305 303 303 302
304 303 303 304 303 304 302 303 304 305 308 307 307 307 308 309 309 311 311 312 313 314 316 319 322 325 326 328 329 328 329 329 329 329 327 325 321 319 317 316 316 315 312 308 305 303 303 302 302
303 298 301 302 303 302 302 299 299 306 307 306 306 307 309 309 310 310 310 311 312 313 315 317 320 322 323 325 326 327 327 326 326 326 326 323 321 318 315 314 313 312 309 306 304 303 303 301 300
299 299 295 302 301 301 300 295 303 306 304 304 306 307 308 309 309 311 311 311 311 312 313 314 315 318 321 323 324 325 326 325 324 324 323 321 319 317 313 311 310 309 305 303 302 301 300 300 299
298 293 296 298 304 299 299 296 303 305 304 303 304 305 306 307 309 310 310 311 311 311 311 312 314 315 317 320 322 323 324 323 322 322 320 319 317 315 311 309 308 306 302 301 300 300 300 299 299
294 296 297 297 301 300 298 297 301 303 303 302 303 305 306 306 307 308 308 310 310 311 311 311 312 313 314 316 319 320 321 321 321 320 318 317 315 313 310 308 306 304 301 300 300 299 300 300 299
297 295 294 298 301 299 297 297 299 302 303 302 303 304 305 305 308 308 308 309 309 310 309 309 308 310 311 312 313 315 315 317 317 318 318 316 314 312 309 306 305 302 299 299 299 299 298 298 298
296 294 294 298 300 296 296 295 299 301 302 303 303 303 304 305 305 306 307 308 307 306 307 307 307 308 308 310 312 313 314 315 316 316 315 315 313 311 308 305 303 302 299 299 298 297 296 297 296
295 294 294 293 296 297 296 294 299 302 304 303 303 303 303 304 303 302 303 303 304 303 304 304 305 306 307 308 308 310 311 311 309 311 311 312 311 310 308 305 303 301 299 297 298 297 296 294 295
291 297 295 294 291 289 296 287 295 300 301 302 302 303 303 302 301 300 300 300 300 301 303 302 304 303 305 306 305 305 305 304 306 307 308 309 309 308 307 305 303 302 299 298 298 298 297 296 292
293 294 293 293 291 291 292 288 294 299 297 298 300 298 299 299 298 298 298 298 298 300 300 301 300 301 301 304 303 303 303 305 306 306 306 306 306 306 306 304 302 301 299 298 298 296 296 297 295
295 293 294 294 292 286 293 291 292 294 296 297 297 297 297 297 297 297 297 297 296 297 298 299 298 298 300 299 299 299 300 301 302 303 303 304 304 304 303 303 301 301 299 298 298 297 296 296 296
292 291 286 286 286 285 295 291 293 298 300 297 296 295 296 297 296 296 295 295 294 294 295 295 296 294 295 297 297 297 297 298 299 300 300 302 301 301 301 300 300 299 299 298 297 296 295 295 295
293 293 287 280 283 287 292 286 291 299 298 297 297 297 296 295 296 295 295 295 295 293 294 294 293 293 293 293 295 296 296 296 296 298 298 299 299 301 301 299 299 299 299 298 297 296 295 295 295
293 288 293 286 287 284 287 291 296 300 296 296 295 295 294 293 293 292 293 293 294 293 293 293 293 293 293 292 293 294 295 294 294 295 296 297 298 297 298 299 298 297 297 297 296 295 294 293 294
291 292 286 287 278 278 284 287 288 293 293 293 292 291 291 291 291 291 291 291 291 292 292 292 293 292 292 292 292 292 293 293 294 293 293 294 295 296 295 295 295 295 295 295 294 293 293 292 292
290 289 289 288 286 280 279 284 294 293 292 290 289 290 289 289 289 289 288 289 290 290 290 290 290 290 290 290 290 291 291 291 292 292 292 292 292 293 293 294 293 292 292 292 292 292 292 290 290
293 290 290 283 282 285 283 283 296 295 290 289 288 289 288 288 288 286 286 287 287 287 288 288 289 288 288 288 288 289 290 289 288 288 290 291 291 292 291 292 292 292 292 292 291 290 290 289 288
Wind_Speed
8 7 5 5 6 4 3 3 3 3 1 4 3 6 9 8 7 6 4 6 3 13 15 16 12 12 13 11 12 12 12 11 13 14 13 11 10 8 5 5 5 6 8 7 6 5 6 6 5
6 6 6 4 6 5 6 3 1 7 6 4 4 6 7 6 1 2 4 9 8 13 13 16 12 12 12 13 13 11 11 11 11 11 12 11 10 7 2 3 4 6 7 7 6 6 5 6 6
7 5 5 4 4 6 6 2 2 3 3 4 4 3 7 3 3 2 4 10 10 13 13 14 14 13 13 12 12 12 12 13 13 12 12 11 9 6 3 3 5 6 7 7 7 7 7 7 7
4 5 5 6 5 4 4 7 6 7 2 2 4 8 3 3 1 4 3 9 10 13 13 15 16 14 14 14 13 12 12 12 14 13 11 11 9 8 5 6 6 6 6 6 7 7 7 7 7
5 4 5 5 4 4 4 4 4 6 4 2 3 3 4 4 4 4 5 9 11 12 13 13 12 14 15 15 13 13 14 16 13 10 9 8 9 8 7 7 7 7 6 7 8 7 7 7 8
4 4 6 5 5 1 2 1 3 4 3 1 4 9 5 7 5 6 6 9 10 12 12 12 12 10 12 15 16 16 15 13 9 5 6 8 10 9 8 8 7 7 7 8 7 7 7 7 8
7 5 7 8 7 6 2 2 4 4 4 5 2 6 1 7 5 5 6 9 10 12 12 12 14 12 9 10 11 12 13 9 8 8 9 9 8 9 9 9 8 8 9 9 8 7 7 7 7
5 4 5 5 5 8 5 4 3 7 9 3 2 6 5 8 5 4 5 8 10 11 13 13 12 14 13 12 7 9 8 8 8 8 10 10 9 8 7 7 8 10 9 9 9 9 8 8 7
2 6 8 9 7 3 4 7 5 4 10 10 9 13 7 4 4 6 6 9 10 11 13 13 13 14 14 14 12 7 7 8 8 7 8 9 8 10 10 9 11 10 10 10 9 9 9 9 7
7 8 10 5 8 8 10 9 12 12 12 14 17 18 14 8 8 10 11 11 13 14 14 14 15 14 13 11 13 13 12 10 9 7 8 7 11 9 9 9 8 9 8 9 9 9 8 6 5
6 10 11 9 11 12 12 13 13 13 15 17 13 9 11 10 12 14 15 14 13 14 12 16 15 15 14 11 8 6 7 7 8 11 10 12 8 7 6 6 7 7 8 6 6 5 5 3 2
10 14 15 12 6 7 12 14 14 14 22 20 21 19 17 14 15 15 15 15 14 13 15 15 16 14 14 9 9 9 8 8 8 10 14 9 7 8 8 6 8 8 8 8 6 4 3 3 1
15 14 12 12 11 14 17 18 18 19 23 22 21 17 15 14 15 14 14 13 13 14 14 15 15 15 13 14 10 10 10 9 9 10 11 9 8 8 8 7 7 7 7 6 6 6 6 5 4
10 11 16 17 16 15 16 20 13 10 12 13 14 16 15 15 12 12 12 13 13 13 14 14 16 16 15 13 14 10 9 10 10 10 11 14 10 8 8 7 7 7 7 6 6 7 6 5 5
9 13 15 20 20 10 5 13 12 18 14 15 17 17 15 14 15 15 12 13 12 12 13 14 15 15 16 16 14 10 9 9 8 8 12 13 12 10 9 8 7 8 7 8 6 6 5 5 5
9 11 10 1 6 3 6 14 15 8 9 17 21 22 20 21 17 14 13 12 10 12 11 12 9 13 15 14 12 9 9 9 8 9 8 13 13 11 10 8 8 8 7 7 6 6 6 5 5
12 12 16 16 9 3 9 14 12 16 20 26 23 20 17 16 13 9 9 8 6 8 8 9 10 13 12 12 10 11 10 9 9 9 9 13 14 13 10 9 8 10 8 7 7 7 7 6 5
14 19 19 15 14 10 15 21 20 20 16 24 24 18 15 11 9 8 8 6 6 4 5 4 4 8 9 8 8 7 9 8 8 9 10 13 12 16 13 10 10 10 8 8 8 9 7 6 5
20 19 21 19 19 21 21 20 18 21 20 21 20 14 9 5 6 9 9 10 9 9 7 6 2 4 5 6 7 7 8 6 8 8 11 11 11 13 13 10 11 12 11 11 11 8 10 7 7
17 21 21 17 13 6 16 20 26 20 21 11 11 9 6 5 8 13 16 17 17 17 16 14 9 3 4 5 6 6 6 8 8 8 9 11 12 12 12 12 11 12 10 12 13 14 9 7 11
18 20 19 21 19 13 14 16 6 9 12 3 4 2 2 6 14 17 18 20 19 20 18 16 15 12 7 4 4 4 6 5 5 6 7 10 13 13 14 13 11 12 12 12 13 14 15 9 10
19 15 13 12 7 10 8 9 14 6 8 6 7 12 14 18 18 17 17 18 19 18 15 18 17 16 11 9 5 8 7 8 7 7 6 8 11 14 14 15 15 13 11 13 13 12 13 11 11
6 2 6 8 11 16 12 9 4 6 4 12 11 16 16 18 17 16 17 17 16 16 15 16 17 16 16 12 10 8 8 6 6 7 9 8 9 12 13 14 16 15 12 13 14 14 16 12 10
3 6 12 11 8 10 12 11 3 2 11 8 15 15 14 14 14 14 14 13 14 14 13 14 15 16 15 14 14 14 13 12 9 7 8 6 6 7 12 14 15 15 14 15 14 15 16 14 12
6 8 7 8 8 12 8 8 9 4 14 7 11 11 12 11 12 11 12 12 12 12 10 10 15 15 15 15 14 12 11 12 12 11 8 9 6 7 9 13 14 14 16 16 16 15 16 17 15
8 6 8 7 11 16 13 15 9 7 12 13 12 11 10 11 13 14 12 11 11 13 15 14 14 13 13 13 13 12 12 8 8 9 9 9 9 7 10 10 14 16 17 16 16 13 14 15 15
2 7 6 6 14 11 16 22 20 16 10 11 11 11 14 15 15 15 15 15 14 13 13 13 13 12 12 12 10 11 10 11 10 12 10 9 10 9 11 11 12 15 16 16 16 13 15 16 16
7 2 6 5 6 18 20 19 14 12 8 8 10 10 10 10 10 12 13 14 14 15 15 16 16 16 15 14 13 11 12 12 10 9 11 12 12 12 10 11 12 13 14 15 16 14 14 15 13
9 10 11 11 10 15 20 18 12 8 8 8 8 7 9 10 10 10 10 12 12 12 12 13 14 15 14 14 14 13 12 12 11 10 11 10 12 11 12 11 10 11 13 13 15 16 15 16 16
20 21 20 15 19 15 18 20 19 10 11 10 11 6 5 5 8 8 9 9 11 12 12 12 12 12 12 12 12 12 12 13 12 12 13 12 13 11 11 11 11 11 12 13 15 16 16 17 17
Wind_Direction
262 269 286 257 257 227 268 91 336 299 263 35 317 299 341 315 316 359 127 171 187 164 160 170 173 172 172 161 157 160 165 169 167 157 148 131 115 106 129 132 106 99 106 108 102 91 83 75 56
281 284 245 284 258 270 71 58 216 35 23 324 285 258 265 299 32 118 192 165 176 165 165 177 170 172 167 166 162 165 175 179 178 161 151 141 129 113 134 155 153 125 124 120 111 103 88 80 72
269 269 266 272 290 345 349 41 17 339 312 272 279 256 311 318 94 42 62 154 172 168 173 176 166 178 177 173 171 180 191 189 179 169 154 143 129 132 141 159 159 138 127 123 117 109 103 91 81
268 201 219 260 327 346 304 337 345 298 165 227 295 272 188 359 4 58 122 159 175 173 179 142 167 186 182 180 183 189 196 189 172 173 155 124 125 142 178 173 160 142 140 134 126 115 109 96 91
228 245 260 254 297 309 314 319 298 285 298 243 206 267 274 132 122 138 161 176 184 181 186 158 172 192 183 187 190 193 188 184 164 151 130 141 152 165 188 180 175 158 153 144 131 123 112 99 87
241 278 253 294 349 303 255 350 289 257 276 187 242 265 269 112 168 175 187 191 199 189 189 183 178 193 187 190 188 191 181 175 165 135 160 176 165 176 194 191 179 170 163 147 132 125 114 101 95
279 270 287 292 288 281 212 150 236 318 291 258 266 270 265 178 164 168 193 197 200 199 194 197 187 191 187 189 192 191 189 173 195 189 180 184 170 185 195 188 184 178 165 152 141 131 118 106 94
282 274 266 238 291 289 154 196 274 276 294 52 265 249 253 108 140 177 198 209 202 206 197 204 198 195 199 199 188 182 167 174 191 194 173 165 159 173 184 171 190 179 163 156 150 144 129 119 109
280 256 268 267 263 275 152 264 165 281 277 253 235 268 340 103 165 198 201 212 209 209 206 206 207 205 205 203 192 190 168 180 183 170 151 144 199 191 179 196 165 175 167 164 159 149 139 130 121
231 246 278 296 281 278 296 268 289 284 265 267 256 232 244 220 237 237 225 223 216 213 209 211 210 210 209 207 203 200 203 204 196 178 164 192 211 197 198 171 167 154 155 165 161 150 148 197 162
216 249 277 299 283 296 285 291 277 267 275 270 275 291 292 262 237 252 253 245 238 220 215 214 211 210 209 213 209 195 209 201 198 194 191 202 203 182 184 168 172 165 162 175 170 166 205 192 190
259 244 273 285 310 288 275 288 281 270 270 282 291 298 294 281 260 250 256 260 255 242 220 214 217 211 209 207 201 208 202 203 195 201 208 191 193 185 190 185 182 176 176 177 177 186 166 178 177
246 270 281 286 280 274 284 268 268 273 276 283 285 286 272 263 263 263 262 249 252 247 232 219 208 215 212 207 208 210 207 199 204 194 201 195 197 193 191 191 185 181 180 178 182 177 175 173 170
328 294 286 279 271 271 262 277 286 266 274 287 284 282 274 270 266 268 262 253 238 239 235 223 216 210 210 209 214 206 210 203 207 197 194 196 203 196 193 192 191 189 185 183 185 177 176 176 165
286 292 291 274 255 254 273 271 232 261 270 279 284 283 280 260 263 271 266 270 260 241 238 228 215 211 215 213 215 219 213 212 207 209 203 199 206 195 191 192 191 191 182 182 184 181 176 168 169
270 277 282 340 110 174 209 280 298 355 319 291 288 286 283 287 295 296 294 278 264 264 245 230 221 216 212 220 215 215 214 208 215 207 208 207 210 206 192 192 194 188 181 184 183 179 180 185 178
236 272 279 292 303 213 223 295 299 308 301 288 285 284 296 303 319 326 324 306 273 276 260 236 223 219 223 222 226 222 221 220 212 210 207 206 203 207 201 201 190 181 183 186 187 184 189 182 180
280 294 295 290 292 241 272 277 293 291 281 276 280 300 308 314 358 2 346 344 335 336 328 294 244 228 226 230 226 223 225 221 225 223 217 209 205 201 202 196 189 182 185 188 185 182 191 178 174
283 289 282 288 294 288 289 299 297 287 281 269 288 302 319 10 41 41 34 36 35 46 36 12 308 217 214 206 221 230 238 232 231 235 239 227 215 209 206 204 193 182 186 187 187 180 179 177 153
278 277 280 281 279 300 289 295 280 281 270 282 305 306 323 34 50 53 41 41 38 30 25 15 14 344 219 223 216 235 234 237 238 225 232 232 230 218 218 211 203 191 189 191 189 182 170 181 172
261 272 282 287 305 285 290 286 251 246 257 270 29 343 358 71 63 44 41 37 28 23 19 20 17 12 352 304 278 261 269 274 262 243 234 226 224 219 216 222 219 202 194 193 190 189 184 177 186
279 283 287 286 290 286 12 294 295 302 272 140 95 57 36 55 65 48 43 40 31 21 20 21 20 19 16 350 297 280 278 277 263 249 241 242 227 229 215 213 220 218 213 206 197 190 190 188 186
254 335 278 273 268 287 269 242 253 257 256 90 84 67 59 60 56 47 39 37 32 24 25 21 26 27 20 1 347 323 299 289 290 287 271 252 233 230 233 219 217 218 210 219 203 196 198 199 189
29 273 260 263 266 256 257 234 302 334 136 153 79 77 71 65 53 43 43 37 38 32 27 22 22 29 24 20 9 352 334 323 307 296 290 263 255 236 227 231 226 223 217 213 211 205 206 208 210
224 271 286 258 225 255 300 281 248 285 288 73 106 91 80 67 56 52 48 40 33 25 23 26 30 26 18 16 15 6 349 330 316 316 303 290 264 249 234 231 228 232 226 216 213 210 208 206 208
202 259 273 294 280 296 302 267 258 324 90 105 101 90 73 51 38 33 31 23 22 24 21 19 16 13 16 13 10 7 2 344 326 315 310 302 294 270 241 235 235 233 235 229 221 219 213 208 211
19 229 278 272 272 273 269 272 274 258 129 101 86 63 39 25 19 17 14 15 14 14 12 13 10 9 11 9 7 3 5 358 344 328 314 303 285 281 279 258 237 238 236 234 229 226 216 212 208
230 30 259 213 244 257 272 279 285 282 108 60 45 44 40 33 23 14 10 5 5 4 2 1 5 0 1 0 358 358 355 354 352 345 329 312 301 290 275 257 253 246 240 234 231 231 229 222 217
224 243 228 262 251 266 274 270 298 52 65 67 37 31 13 10 5 6 4 358 357 356 358 358 358 356 357 352 349 349 350 349 346 346 344 328 307 297 285 273 252 248 241 235 232 230 231 227 220
286 279 273 261 267 245 249 257 285 12 89 43 1 21 18 354 344 357 0 354 351 351 352 351 350 347 352 343 343 343 344 348 346 340 338 333 324 310 298 290 274 259 246 243 236 230 229 228 224